Regional Weather Roundup
Issued by NWS

Home | Current Version | Previous Version | Graphics & Text | Print | Product List | Glossary On
Versions: 1 2 3 4 5 6 7 8 9 10 11 12 13 14 15 16 17 18 19 20 21 22 23 24 25 26 27 28 29 30 31 32 33 34 35 36 37 38 39 40 41 42 43 44 45 46 47 48 49 50
000
ASUS43 KIND 030709
RWRIN

WEATHER ROUNDUP FOR INDIANA
NATIONAL WEATHER SERVICE INDIANAPOLIS IN
300 AM EDT SUN MAY 03 2015

NOTE: "FAIR" INDICATES FEW OR NO CLOUDS BELOW 12,000 FEET WITH NO
SIGNIFICANT WEATHER AND/OR OBSTRUCTIONS TO VISIBILITY.

* - STATION DOES NOT REPORT WEATHER SUCH AS PRECIPITATION OR FOG.

+ - STATION NOT QUALITY CONTROLLED BY THE NATIONAL WEATHER SERVICE.
    USE DATA WITH CAUTION...ESPECIALLY DEWPOINT AND RELATIVE
    HUMIDITY OBSERVATIONS.

INZ001>003-010>013-019-020-030800-
NORTHWEST INDIANA

CITY           SKY/WX    TMP DP  RH WIND       PRES   REMARKS
GARY /AIRPORT/ PTCLDY    62  33  34 S5        29.99S
KNOX *+        PTCLDY    54  27  35 S7        30.01S
LA PORTE +     PTCLDY    55  41  59 SW3       30.02R
MICHIGAN CITY+ PTCLDY    59  32  36 S7        30.00F HAZE
MONTICELLO +   CLOUDY    59  42  53 S3        30.02S
VALPARAISO     PTCLDY    56  39  53 S5        30.01S

$$

LMZ046-743>745-030800-
SOUTHERN LAKE MICHIGAN

STATION/POSITION TIME  TEMP    WIND        PRES    WAVE
                       AIR SEA DIR/SP/G            HT
                 (UTC) (F)     (DEG/KT/KT) (MB)    (FT)
BURNS HARBOR     0700   60     180/ 10/ 12 1015.9F
MICHIGAN CITY    0700   63     170/ 13/ 15   N/A
5NW MICH CITY    0700   57 51  210/  8/  8   N/A     1

$$

INZ004-005-014>016-021>024-030800-
NORTH CENTRAL INDIANA

CITY           SKY/WX    TMP DP  RH WIND       PRES   REMARKS
GOSHEN         MOCLDY    56  41  57 SW7       30.02S
LOGANSPORT +   CLOUDY    54  41  62 S6        30.04S
PERU/GRISSOM   MOCLDY    54  45  71 SW6       30.02S
ROCHESTER +    PTCLDY    59  43  55 SW5       30.03S
SOUTH BEND     PTCLDY    58  39  49 SW8       30.02S
WARSAW +       PTCLDY    54  41  62 CALM      30.03S

$$

INZ006>009-017-018-025>027-030800-
NORTHEAST INDIANA

CITY           SKY/WX    TMP DP  RH WIND       PRES   REMARKS
ANGOLA *+      CLEAR     50  46  87 CALM      30.03R
AUBURN +       PTCLDY    59  39  47 SW5       30.04S
FORT WAYNE     MOCLDY    52  44  74 SW7       30.04S
HUNTINGTON +   MOCLDY    53  44  73 SW3       30.03S

$$

INZ028-029-035-036-043>045-051>053-030800-
WEST CENTRAL INDIANA

CITY           SKY/WX    TMP DP  RH WIND       PRES   REMARKS
CRAWFORDSVL +  CLOUDY    51  41  69 S3        30.04S
GREENCASTLE +  MOCLDY    52  41  66 CALM      30.05S
LAFAYETTE      MOCLDY    52  43  71 CALM      30.03S
TERRE HAUTE    MOCLDY    53  47  79 CALM      30.04S

$$

INZ030>032-037>040-046>048-054>057-064-065-030800-
CENTRAL INDIANA

CITY           SKY/WX    TMP DP  RH WIND       PRES   REMARKS
CP ATTERBURY + CLEAR     46  45  93 CALM      30.07S
FISHERS *+     CLEAR     50  46  87 CALM      30.05
FRANKFORT +    MOCLDY    51  44  77 S5        30.05F
GREENWOOD *+   CLEAR     54  45  71 CALM      30.06S
INDIANAPOLIS   PTCLDY    58  42  55 CALM      30.03F
-EAGLE CREEK   PTCLDY    53  46  77 CALM      30.04F
MARION +       CLOUDY    53  44  70 CALM      30.05S
MT COMFORT *+  CLEAR     50  41  71 CALM      30.06S
SHELBYVILLE    CLEAR     51  45  79 S5        30.05S
ZIONSVILLE +   PTCLDY    52  45  78 CALM      30.05F

$$

INZ033-034-041-042-049-050-058-059-030800-
EAST CENTRAL INDIANA

CITY           SKY/WX    TMP DP  RH WIND       PRES   REMARKS
MUNCIE         MOCLDY    58  44  60 SW5       30.05S

$$

INZ060-061-067>069-081>083-085>088-030800-
SOUTHWEST INDIANA

CITY           SKY/WX    TMP DP  RH WIND       PRES   REMARKS
EVANSVILLE     PTCLDY    56  50  80 CALM      30.05S
HUNTINGBURG *+ PTCLDY    55  46  71 SE5       30.06S
WASHINGTON +   MOCLDY    54  46  75 SE3       30.04S

$$

INZ062-063-066-070>080-084-089>092-030800-
SOUTH CENTRAL AND SOUTHEAST INDIANA

CITY           SKY/WX    TMP DP  RH WIND       PRES   REMARKS
BEDFORD +      PTCLDY    52  45  76 CALM      30.06F
BLOOMINGTON    MOCLDY    50  45  83 CALM      30.05F
MADISON *+     MOCLDY    50  45  81 CALM      30.09S
NORTH VERNON + PTCLDY    50  50 100 CALM      30.07F
SEYMOUR +      PTCLDY    52  50  93 CALM      30.06S

$$



USA.gov is the U.S. government's official web portal to all federal, state and local government web resources and services.